www.pogodaiklimat.ru

ПОГОДА в Клинтоне, NC

  • Прогноз погоды в Клинтоне
  • Монитор погоды в Клинтоне
  • Климат в Клинтоне

АРХИВ ПОГОДЫ в Клинтоне

Время (UTC), дата Ветер
(напр.,м/с)
 
Видим.   Явления Облачность Т
(С)
Тd
(С)
f
(%)
Тe
(С)
Тes
(С)
Комфортность

P
(гПа)

Po
(гПа)
Тmin
(С)
Tmax
(С)
R
(мм)
SD
(см)
09:20 23.03   16 км    ясно  +4.9  -1.2  65  +4  +4      1014.4         
09:40 23.03   16 км    ясно  +5.3  -1.5  61  +5  +5      1014.8         
10:00 23.03   16 км    ясно  +3.3  -1.1  73  +3  +3      1015.4         
10:20 23.03   16 км    ясно  +4.6  -1.2  66  +4  +4      1016.1         
10:40 23.03   16 км    ясно  +5.0  -1.5  63  +4  +4      1016.5         
11:00 23.03 З  16 км    ясно  +5.8  -1.0  62  +3  +3      1016.5         
11:20 23.03 СЗ  16 км    ясно  +7.2  -1.4  54  +5  +6      1016.8         
11:40 23.03 СЗ  16 км    ясно  +8.0  -1.1  53  +5  +6      1017.1         
12:00 23.03 СЗ  16 км    ясно  +9.1  -1.6  47  +7  +9      1017.5         
12:20 23.03 СЗ  4
{7} 
16 км    ясно  +10.0  -2.3  42  +8  +10      1017.8         
12:40 23.03 СЗ  16 км    ясно  +10.6  -2.6  40  +8  +8      1017.8         
13:00 23.03 СЗ  5
{8} 
16 км    ясно  +11.2  -2.7  38  +9  +11      1018.1         
13:20 23.03 СЗ  5
{9} 
16 км    ясно  +11.6  -3.2  35  +9  +12      1018.5         
13:40 23.03 СЗ  5
{9} 
16 км    ясно  +12.0  -4.0  32  +10  +12      1018.8         
14:00 23.03 СЗ  5
{8} 
16 км    ясно  +12.0  -4.6  31  +10  +14      1018.8         
14:20 23.03 З  4
{8} 
16 км    ясно  +13.0  -3.3  32  +12  +19      1018.8         
14:40 23.03 СЗ  4
{9} 
16 км    ясно  +13.3  -4.4  29  +12  +18      1018.8         
15:00 23.03 СЗ  4
{9} 
16 км    ясно  +13.7  -4.9  27  +12  +20      1018.8         
15:20 23.03 З  5
{8} 
16 км    ясно  +14.3  -4.1  28  +13  +18      1018.8         
15:40 23.03 СЗ  16 км    ясно  +14.6  -4.5  26  +13  +18      1018.5         
16:00 23.03 СЗ  6
{8} 
16 км    ясно  +14.8  -5.5  24  +13  +18      1018.5         
16:20 23.03 СЗ  5
{8} 
16 км    ясно  +15.0  -5.6  24  +14  +19      1018.1         
16:40 23.03 З  4
{7} 
16 км    ясно  +15.5  -5.5  23  +15  +22      1017.8         
17:00 23.03 СЗ  3
{7} 
16 км    ясно  +16.0  -5.9  22  +16  +26      1017.8         
17:20 23.03 СЗ  6
{8} 
16 км    ясно  +16.1  -5.5  22  +15  +20      1017.5         
17:40 23.03 СЗ  4
{7} 
16 км    ясно  +16.5  -5.7  21  +16  +26      1017.5         
18:00 23.03 З  5
{8} 
16 км    ясно  +16.8  -5.6  21  +16  +21      1017.5         
18:20 23.03 З  3
{7} 
16 км    ясно  +16.7  -5.6  21  +16  +26      1017.5         
18:40 23.03 СЗ  4
{7} 
16 км    ясно  +17.2  -5.2  21  +17  +23      1017.1         
19:00 23.03 С  16 км    ясно  +17.3  -5.3  21  +17  +23      1017.1         
19:20 23.03 З  4
{7} 
16 км    ясно  +17.5  -5.2  21  +17  +21      1017.1         
19:40 23.03 З  16 км    ясно  +17.6  -5.5  20  +18  +26      1017.1         
20:00 23.03 З  5
{8} 
16 км    ясно  +17.5  -5.6  20  +17  +19      1017.1         
20:20 23.03 СЗ  16 км    ясно  +17.6  -5.5  20  +17  +20      1017.1         
20:40 23.03 СЗ  4
{8} 
16 км    ясно  +17.5  -5.1  21  +17  +20      1017.1         
21:00 23.03 СЗ  16 км    ясно  +17.5  -4.8  21  +17  +18      1017.5         
21:20 23.03 З  16 км    ясно  +17.2  -4.9  22  +17  +18      1017.5         
21:40 23.03 СЗ  16 км    ясно  +16.9  -5.1  22  +17  +19      1017.8         
22:00 23.03 З  16 км    ясно  +16.5  -4.3  24  +17  +17      1018.1         
22:20 23.03   16 км    ясно  +15.6  -3.9  26  +16  +16      1018.5         
22:40 23.03   16 км    ясно  +13.2  -2.7  33  +13  +13      1018.8         
23:00 23.03   16 км    ясно  +11.8  -2.7  36  +12  +12      1019.1         
23:20 23.03   16 км    ясно  +10.8  -1.3  43  +11  +11      1019.5         
23:40 23.03   16 км    ясно  +9.7  -1.7  45  +10  +10      1019.8         
00:00 24.03   16 км    ясно  +9.4  -1.1  48  +9  +9      1019.8         
00:20 24.03   16 км    ясно  +9.4  +0.1  52  +9  +9      1019.8         
00:40 24.03   16 км    ясно  +8.2  -0.6  54  +8  +8      1020.2         
01:00 24.03   16 км    ясно  +7.0  -0.2  60  +7  +7      1020.2         

 

Местоположение метеостанции Sampson County Airport: широта 34.9756 долгота -78.3647 высота над уровнем моря 45 м.

В архиве по умолчанию представлена погода в Клинтоне за последние 1-2 суток. Обновление информации о фактической погоде в базе происходит ежечасно! Архивные данные за месяц целиком и за предыдущие месяцы Вы можете получить, выбрав интересующий диапазон дат из раскрывающегося списка и нажав кнопку "Ввод!".

Внимание! Архив погоды МЕТАР в базе сайта хранится не более 60 дней. Нет смысла пытаться выбрать более раннюю дату.

Внимание! Время в таблицах - всемирное. Для получения местного времени необходимо прибавить поправку, которая в Клинтоне равна -5 ч.

Ветер - указаны скорость ветра в м/с и направление, откуда дует ветер: С - северный, СВ - северо-восточный, В - восточный, ЮВ - юго-восточный, Ю - южный, ЮЗ - юго-западный, З - западный, СЗ - северо-западный.
Видимость - горизонтальная дальность видимости в метрах или километрах. При видимости от 1 до 10 км при отсутствии осадков обычно наблюдается дымка, при ухудшении видимости до 1 км и менее - туман. В сухую погоду видимость может ухудшаться дымом, пылью или мглою.
Атмосферные явления - указаны явления, наблюдавшиеся в указанный момент времени.
Облачность - указаны через наклонную черту верхняя и нижняя облачность в баллах и высота нижней границы облаков в метрах. Внимание: облачность, как и прочие метеорологические величины в США измеряются автоматическими метеостанциями. Указанные значения в баллах носят условный характер и показывают процент времени, в течение которого, в среднем, лазерный луч высотомера отражался от облаков обратно.
T - Температура воздуха - температура, измеренная на высоте 2 м над землей.
Td - Температура точки росы - температура, при понижении до которой содержащийся в воздухе водяной пар достигнет насыщения.
f - Относительная влажность воздуха - влажноcть воздуха, измеренная на высоте 2 м над землей.
Te - Эффективная температура - температура, которую ощущает одетый по сезону человек в тени. Характеристика душности погоды. При расчете учитывается влияние влажности воздуха и скорости ветра на теплоощущения человека.
Tes - Эффективная температура на солнце - температура, которую ощущает человек, с поправкой на солнечный нагрев. Характеристика знойности погоды. Зависит от высоты солнца над горизонтом, облачности и скорости ветра. Ночью, в пасмурную погоду, а также при ветре 12 м/с и более поправка равна нулю.
P - Атмосферное давление - приведенное к уровню моря атмосферное давление.
Po - Атмосферное давление - измеренное на уровне метеостанции атмосферное давление.
Tmin - Минимальная температура - минимум температуры воздуха на высоте 2 м над землей.
Tmax - Максимальная температура - максимум температуры воздуха на высоте 2 м над землей.
R - Количество осадков - Количество выпавших осадков за 3 или 6 часов, мм.
SD - Снежный покров - Высота снежного покрова, см.